Location: Buchloe
(48.0161°N, 10.7316°E)
Time: 19:44:29
(UTC+02:00)

ISS - Pass Details

Date: 25 May 2018
Orbit: 402 x 407 km, 51.6° (Epoch: 27 May)

Event Time Altitude Azimuth Distance (km) Brightness Sun altitude
Rises 21:58:37 0° 251° (WSW) 2,314 0.4 -8.3°
Reaches altitude 10° 22:00:42 10° 253° (WSW) 1,456 -0.6 -8.5°
Maximum altitude 22:03:57 75° 339° (NNW) 422 -3.6 -8.9°
Drops below altitude 10° 22:07:14 10° 66° (ENE) 1,459 -1.2 -9.3°
Sets 22:09:19 0° 68° (ENE) 2,320 -0.2 -9.5°
